Time,TemperatureF,DewpointF,PressureIn,WindDirection,WindDirectionDegrees,WindSpeedMPH,WindSpeedGustMPH,Humidity,HourlyPrecipIn,Conditions,Clouds,dailyrainin,SoftwareType,DateUTC
2013-01-21 00:00:00,50.7,32.0,30.04,NNE,25,0.0,0.0,43,0.00,,---,0.00,cosweather0.1e,2013-01-21 08:00:00,
2013-01-21 00:05:00,50.5,32.0,30.04,NNE,24,0.0,0.0,43,0.00,,---,0.00,cosweather0.1e,2013-01-21 08:05:00,
2013-01-21 00:10:00,50.4,32.0,30.04,NNE,25,0.0,0.0,43,0.00,,---,0.00,cosweather0.1e,2013-01-21 08:10:00,
2013-01-21 00:15:00,50.0,32.0,30.04,NNE,24,0.0,0.0,43,0.00,,---,0.00,cosweather0.1e,2013-01-21 08:15:00,
2013-01-21 00:21:00,50.0,32.0,30.04,NNE,25,0.0,0.0,43,0.00,,---,0.00,cosweather0.1e,2013-01-21 08:21:00,
2013-01-21 00:26:00,50.0,32.0,30.04,NNE,24,0.0,0.0,44,0.00,,---,0.00,cosweather0.1e,2013-01-21 08:26:00,
2013-01-21 00:31:00,49.6,32.0,30.04,NNE,25,0.0,0.0,44,0.00,,---,0.00,cosweather0.1e,2013-01-21 08:31:00,
2013-01-21 00:36:00,49.6,32.0,30.04,NNE,25,0.0,0.0,44,0.00,,---,0.00,cosweather0.1e,2013-01-21 08:36:00,
2013-01-21 00:41:00,49.6,32.0,30.04,NNE,24,0.0,0.0,45,0.00,,---,0.00,cosweather0.1e,2013-01-21 08:41:00,
2013-01-21 00:46:00,49.3,32.0,30.04,NNE,25,0.0,0.0,45,0.00,,---,0.00,cosweather0.1e,2013-01-21 08:46:00,
2013-01-21 00:51:00,49.1,32.0,30.04,NNE,25,0.0,0.0,45,0.00,,---,0.00,cosweather0.1e,2013-01-21 08:51:00,
2013-01-21 00:56:00,49.1,32.0,30.04,NNE,25,0.0,0.0,45,0.00,,---,0.00,cosweather0.1e,2013-01-21 08:56:00,
2013-01-21 01:01:00,48.9,32.0,30.04,NNE,24,0.0,0.0,45,0.00,,---,0.00,cosweather0.1e,2013-01-21 09:01:00,
2013-01-21 01:06:00,48.9,32.0,30.04,NNE,25,0.0,0.0,46,0.00,,---,0.00,cosweather0.1e,2013-01-21 09:06:00,
2013-01-21 01:11:00,48.7,32.0,30.04,NNE,25,0.0,0.0,46,0.00,,---,0.00,cosweather0.1e,2013-01-21 09:11:00,
2013-01-21 01:17:00,48.6,32.0,30.04,NNE,24,0.0,0.0,46,0.00,,---,0.00,cosweather0.1e,2013-01-21 09:17:00,
2013-01-21 01:22:00,48.4,32.0,30.04,NNE,25,0.0,0.0,46,0.00,,---,0.00,cosweather0.1e,2013-01-21 09:22:00,
2013-01-21 01:27:00,48.2,32.0,30.04,NNE,25,0.0,0.0,46,0.00,,---,0.00,cosweather0.1e,2013-01-21 09:27:00,
2013-01-21 01:32:00,48.2,32.0,30.04,NNE,25,0.0,0.0,47,0.00,,---,0.00,cosweather0.1e,2013-01-21 09:32:00,
2013-01-21 01:37:00,48.4,32.0,30.04,NNE,24,0.0,0.0,47,0.00,,---,0.00,cosweather0.1e,2013-01-21 09:37:00,
2013-01-21 01:42:00,48.2,32.0,30.04,NNE,24,0.0,0.0,47,0.00,,---,0.00,cosweather0.1e,2013-01-21 09:42:00,
2013-01-21 01:47:00,48.0,32.0,30.04,NNE,24,0.0,0.0,47,0.00,,---,0.00,cosweather0.1e,2013-01-21 09:47:00,
2013-01-21 01:53:00,48.0,32.0,30.04,NNE,18,0.0,0.0,47,0.00,,---,0.00,cosweather0.1e,2013-01-21 09:53:00,
2013-01-21 01:58:00,47.5,32.0,30.04,NNE,19,0.0,0.0,47,0.00,,---,0.00,cosweather0.1e,2013-01-21 09:58:00,
2013-01-21 02:03:00,47.3,32.0,30.00,NNE,18,0.0,0.0,48,0.00,,---,0.00,cosweather0.1e,2013-01-21 10:03:00,
2013-01-21 02:08:00,47.3,32.0,30.00,NNE,19,0.0,0.0,48,0.00,,---,0.00,cosweather0.1e,2013-01-21 10:08:00,
2013-01-21 02:13:00,47.5,32.0,30.00,NNE,18,0.0,0.0,48,0.00,,---,0.00,cosweather0.1e,2013-01-21 10:13:00,
2013-01-21 02:18:00,47.7,32.0,30.00,NNE,18,0.0,0.0,48,0.00,,---,0.00,cosweather0.1e,2013-01-21 10:18:00,
2013-01-21 02:23:00,47.5,32.0,30.00,NNE,18,0.0,0.0,48,0.00,,---,0.00,cosweather0.1e,2013-01-21 10:23:00,
2013-01-21 02:28:00,47.5,32.0,30.00,NNE,18,0.0,0.0,48,0.00,,---,0.00,cosweather0.1e,2013-01-21 10:28:00,
2013-01-21 02:33:00,47.5,32.0,30.00,North,7,0.0,0.0,48,0.00,,---,0.00,cosweather0.1e,2013-01-21 10:33:00,
2013-01-21 02:38:00,47.3,32.0,30.00,North,7,0.0,0.0,48,0.00,,---,0.00,cosweather0.1e,2013-01-21 10:38:00,
2013-01-21 02:43:00,47.1,32.0,30.00,North,7,0.0,0.0,48,0.00,,---,0.00,cosweather0.1e,2013-01-21 10:43:00,
2013-01-21 02:48:00,47.1,32.0,30.00,North,7,0.0,0.0,48,0.00,,---,0.00,cosweather0.1e,2013-01-21 10:48:00,
2013-01-21 02:53:00,46.8,32.0,30.00,North,7,0.0,0.0,48,0.00,,---,0.00,cosweather0.1e,2013-01-21 10:53:00,
2013-01-21 02:58:00,46.8,32.0,30.00,North,7,0.0,0.0,48,0.00,,---,0.00,cosweather0.1e,2013-01-21 10:58:00,
2013-01-21 03:03:00,46.8,32.0,30.00,North,7,0.0,0.0,48,0.00,,---,0.00,cosweather0.1e,2013-01-21 11:03:00,
2013-01-21 03:08:00,46.8,32.0,30.00,North,7,0.0,0.0,49,0.00,,---,0.00,cosweather0.1e,2013-01-21 11:08:00,
2013-01-21 03:13:00,46.6,32.0,30.00,North,7,0.0,0.0,49,0.00,,---,0.00,cosweather0.1e,2013-01-21 11:13:00,
2013-01-21 03:18:00,46.8,32.0,30.00,North,6,0.0,0.0,49,0.00,,---,0.00,cosweather0.1e,2013-01-21 11:18:00,
2013-01-21 03:23:00,46.6,32.0,30.00,North,7,0.0,0.0,49,0.00,,---,0.00,cosweather0.1e,2013-01-21 11:23:00,
2013-01-21 03:28:00,46.6,32.0,30.00,North,7,0.0,0.0,49,0.00,,---,0.00,cosweather0.1e,2013-01-21 11:28:00,
2013-01-21 03:33:00,46.4,32.0,30.00,North,7,0.0,0.0,49,0.00,,---,0.00,cosweather0.1e,2013-01-21 11:33:00,
2013-01-21 03:38:00,46.4,32.0,30.00,North,7,0.0,0.0,49,0.00,,---,0.00,cosweather0.1e,2013-01-21 11:38:00,
2013-01-21 03:43:00,46.4,32.0,30.00,North,7,0.0,0.0,49,0.00,,---,0.00,cosweather0.1e,2013-01-21 11:43:00,
2013-01-21 03:48:00,45.9,32.0,30.00,North,8,0.0,0.0,50,0.00,,---,0.00,cosweather0.1e,2013-01-21 11:48:00,
2013-01-21 03:53:00,45.3,32.0,30.00,North,8,0.0,0.0,50,0.00,,---,0.00,cosweather0.1e,2013-01-21 11:53:00,
2013-01-21 03:58:00,45.1,32.0,30.00,North,10,0.0,2.7,51,0.00,,---,0.00,cosweather0.1e,2013-01-21 11:58:00,
2013-01-21 04:03:00,45.3,32.0,30.00,North,10,0.0,0.0,51,0.00,,---,0.00,cosweather0.1e,2013-01-21 12:03:00,
2013-01-21 04:08:00,45.5,32.0,30.00,North,10,0.0,0.0,51,0.00,,---,0.00,cosweather0.1e,2013-01-21 12:08:00,
2013-01-21 04:13:00,45.7,32.0,30.00,North,10,0.0,0.0,51,0.00,,---,0.00,cosweather0.1e,2013-01-21 12:13:00,
2013-01-21 04:18:00,45.7,32.0,30.00,NE,46,0.0,0.0,51,0.00,,---,0.00,cosweather0.1e,2013-01-21 12:18:00,
2013-01-21 04:23:00,45.3,32.0,30.00,NE,56,0.0,0.0,51,0.00,,---,0.00,cosweather0.1e,2013-01-21 12:23:00,
2013-01-21 04:28:00,45.3,32.0,30.00,NE,56,0.0,0.0,51,0.00,,---,0.00,cosweather0.1e,2013-01-21 12:28:00,
2013-01-21 04:33:00,45.3,32.0,30.00,NNE,22,0.0,0.0,51,0.00,,---,0.00,cosweather0.1e,2013-01-21 12:33:00,
2013-01-21 04:38:00,45.5,32.0,30.00,NNE,22,0.0,0.0,52,0.00,,---,0.00,cosweather0.1e,2013-01-21 12:38:00,
2013-01-21 04:43:00,45.3,32.0,30.00,NNE,28,0.0,0.0,51,0.00,,---,0.00,cosweather0.1e,2013-01-21 12:43:00,
2013-01-21 04:48:00,45.1,32.0,30.00,NNE,28,0.0,0.0,51,0.00,,---,0.00,cosweather0.1e,2013-01-21 12:48:00,
2013-01-21 04:53:00,45.1,32.0,30.00,NNE,28,0.0,0.0,51,0.00,,---,0.00,cosweather0.1e,2013-01-21 12:53:00,
2013-01-21 04:58:00,45.1,32.0,30.00,NNE,28,0.0,0.0,51,0.00,,---,0.00,cosweather0.1e,2013-01-21 12:58:00,
2013-01-21 05:03:00,45.1,32.0,30.00,NNE,28,0.0,0.0,52,0.00,,---,0.00,cosweather0.1e,2013-01-21 13:03:00,
2013-01-21 05:08:00,44.8,32.0,30.00,NNE,28,0.0,0.0,52,0.00,,---,0.00,cosweather0.1e,2013-01-21 13:08:00,
2013-01-21 05:13:00,44.8,32.0,30.00,NNE,28,0.0,0.0,52,0.00,,---,0.00,cosweather0.1e,2013-01-21 13:13:00,
2013-01-21 05:18:00,45.0,32.0,30.00,NNE,18,0.0,0.0,52,0.00,,---,0.00,cosweather0.1e,2013-01-21 13:18:00,
2013-01-21 05:23:00,45.0,32.0,30.00,NNE,18,0.0,0.0,52,0.00,,---,0.00,cosweather0.1e,2013-01-21 13:23:00,
2013-01-21 05:28:00,45.0,32.0,30.00,NNE,19,0.0,0.0,52,0.00,,---,0.00,cosweather0.1e,2013-01-21 13:28:00,
2013-01-21 05:33:00,45.0,32.0,29.96,NNE,19,0.0,0.0,52,0.00,,---,0.00,cosweather0.1e,2013-01-21 13:33:00,
2013-01-21 05:38:00,44.8,32.0,29.96,NNE,19,0.0,0.0,52,0.00,,---,0.00,cosweather0.1e,2013-01-21 13:38:00,
2013-01-21 05:43:00,44.8,32.0,29.96,NNE,18,0.0,0.0,52,0.00,,---,0.00,cosweather0.1e,2013-01-21 13:43:00,
2013-01-21 05:48:00,44.6,32.0,29.96,NNE,19,0.0,0.0,52,0.00,,---,0.00,cosweather0.1e,2013-01-21 13:48:00,
2013-01-21 05:53:00,44.6,32.0,29.96,NNE,19,0.0,0.0,52,0.00,,---,0.00,cosweather0.1e,2013-01-21 13:53:00,
2013-01-21 05:58:00,44.6,32.0,29.96,NNE,19,0.0,0.0,52,0.00,,---,0.00,cosweather0.1e,2013-01-21 13:58:00,
2013-01-21 06:03:00,44.6,32.0,29.96,NNE,19,0.0,0.0,53,0.00,,---,0.00,cosweather0.1e,2013-01-21 14:03:00,
2013-01-21 06:08:00,44.4,32.0,29.96,NNE,19,0.0,0.0,53,0.00,,---,0.00,cosweather0.1e,2013-01-21 14:08:00,
2013-01-21 06:13:00,44.2,32.0,29.96,NNE,19,0.0,0.0,53,0.00,,---,0.00,cosweather0.1e,2013-01-21 14:13:00,
2013-01-21 06:18:00,44.1,32.0,30.00,North,5,0.0,0.0,53,0.00,,---,0.00,cosweather0.1e,2013-01-21 14:18:00,
2013-01-21 06:23:00,44.1,32.0,30.00,North,4,0.0,0.0,53,0.00,,---,0.00,cosweather0.1e,2013-01-21 14:23:00,
2013-01-21 06:29:00,44.1,32.0,30.00,North,4,0.0,0.0,54,0.00,,---,0.00,cosweather0.1e,2013-01-21 14:29:00,
2013-01-21 06:34:00,44.2,32.0,30.00,North,2,0.0,0.0,54,0.00,,---,0.00,cosweather0.1e,2013-01-21 14:34:00,
2013-01-21 06:39:00,44.1,32.0,30.00,North,2,0.0,0.0,53,0.00,,---,0.00,cosweather0.1e,2013-01-21 14:39:00,
2013-01-21 06:44:00,43.9,32.0,30.00,North,2,0.0,0.0,54,0.00,,---,0.00,cosweather0.1e,2013-01-21 14:44:00,
2013-01-21 06:49:00,43.9,32.0,30.00,North,3,0.0,0.0,54,0.00,,---,0.00,cosweather0.1e,2013-01-21 14:49:00,
2013-01-21 06:54:00,43.9,32.0,30.00,North,3,0.0,0.0,54,0.00,,---,0.00,cosweather0.1e,2013-01-21 14:54:00,
2013-01-21 06:59:00,43.7,32.0,30.00,North,357,0.0,0.0,54,0.00,,---,0.00,cosweather0.1e,2013-01-21 14:59:00,
2013-01-21 07:04:00,43.7,32.0,30.00,NNE,33,0.0,0.0,54,0.00,,---,0.00,cosweather0.1e,2013-01-21 15:04:00,
2013-01-21 07:09:00,43.7,32.0,30.00,NNE,33,0.0,0.0,54,0.00,,---,0.00,cosweather0.1e,2013-01-21 15:09:00,
2013-01-21 07:14:00,43.7,32.0,30.00,NE,34,0.0,0.0,54,0.00,,---,0.00,cosweather0.1e,2013-01-21 15:14:00,
2013-01-21 07:19:00,43.3,32.0,30.00,NNE,25,0.0,0.0,54,0.00,,---,0.00,cosweather0.1e,2013-01-21 15:19:00,
2013-01-21 07:24:00,43.5,32.0,30.00,NNE,25,0.0,0.0,54,0.00,,---,0.00,cosweather0.1e,2013-01-21 15:24:00,
2013-01-21 07:29:00,43.7,32.0,30.00,NNE,25,0.0,0.0,54,0.00,,---,0.00,cosweather0.1e,2013-01-21 15:29:00,
2013-01-21 07:34:00,43.7,32.0,30.00,NNE,25,0.0,0.0,54,0.00,,---,0.00,cosweather0.1e,2013-01-21 15:34:00,
2013-01-21 07:39:00,43.5,32.0,30.00,NNE,25,0.0,0.0,54,0.00,,---,0.00,cosweather0.1e,2013-01-21 15:39:00,
2013-01-21 07:44:00,43.2,32.0,30.00,NNE,25,0.0,0.0,54,0.00,,---,0.00,cosweather0.1e,2013-01-21 15:44:00,
2013-01-21 07:49:00,43.3,32.0,30.00,NNE,25,0.0,0.0,55,0.00,,---,0.00,cosweather0.1e,2013-01-21 15:49:00,
2013-01-21 07:54:00,43.3,32.0,30.00,NNE,25,0.0,0.0,55,0.00,,---,0.00,cosweather0.1e,2013-01-21 15:54:00,
2013-01-21 07:59:00,43.2,32.0,30.00,NNE,24,0.0,0.0,55,0.00,,---,0.00,cosweather0.1e,2013-01-21 15:59:00,
2013-01-21 08:04:00,43.3,32.0,30.00,NNE,25,0.0,0.0,55,0.00,,---,0.00,cosweather0.1e,2013-01-21 16:04:00,
2013-01-21 08:09:00,43.5,32.0,30.00,NNE,23,0.0,0.0,56,0.00,,---,0.00,cosweather0.1e,2013-01-21 16:09:00,
2013-01-21 08:14:00,43.9,32.0,30.04,NNE,23,0.0,0.0,56,0.00,,---,0.00,cosweather0.1e,2013-01-21 16:14:00,
2013-01-21 08:19:00,44.1,32.0,30.04,NNE,23,0.0,0.0,56,0.00,,---,0.00,cosweather0.1e,2013-01-21 16:19:00,
2013-01-21 08:24:00,44.2,32.0,30.04,NNE,23,0.0,0.0,56,0.00,,---,0.00,cosweather0.1e,2013-01-21 16:24:00,
2013-01-21 08:30:00,44.6,32.0,30.04,NNE,23,0.0,0.0,56,0.00,,---,0.00,cosweather0.1e,2013-01-21 16:30:00,
2013-01-21 08:35:00,44.8,32.0,30.04,NNE,23,0.0,0.0,56,0.00,,---,0.00,cosweather0.1e,2013-01-21 16:35:00,
2013-01-21 08:40:00,45.1,32.0,30.04,NNE,23,0.0,0.0,56,0.00,,---,0.00,cosweather0.1e,2013-01-21 16:40:00,
2013-01-21 08:45:00,45.5,32.0,30.04,NNE,23,0.0,0.0,56,0.00,,---,0.00,cosweather0.1e,2013-01-21 16:45:00,
2013-01-21 08:50:00,45.9,32.0,30.04,NNE,23,0.0,0.0,56,0.00,,---,0.00,cosweather0.1e,2013-01-21 16:50:00,
2013-01-21 08:55:00,46.0,32.0,30.04,NNE,23,0.0,0.0,56,0.00,,---,0.00,cosweather0.1e,2013-01-21 16:55:00,
2013-01-21 09:00:00,46.4,32.0,30.04,NNE,22,0.0,0.0,56,0.00,,---,0.00,cosweather0.1e,2013-01-21 17:00:00,
2013-01-21 09:05:00,46.6,32.0,30.04,NNW,329,0.0,0.0,56,0.00,,---,0.00,cosweather0.1e,2013-01-21 17:05:00,
2013-01-21 09:10:00,46.8,32.0,30.04,WNW,289,0.0,0.0,56,0.00,,---,0.00,cosweather0.1e,2013-01-21 17:10:00,
2013-01-21 09:15:00,46.9,32.0,30.04,WNW,292,0.0,0.0,57,0.00,,---,0.00,cosweather0.1e,2013-01-21 17:15:00,
2013-01-21 09:20:00,47.1,32.0,30.04,WNW,292,0.0,0.0,58,0.00,,---,0.00,cosweather0.1e,2013-01-21 17:20:00,
2013-01-21 09:25:00,47.3,33.8,30.04,WNW,293,0.0,0.0,58,0.00,,---,0.00,cosweather0.1e,2013-01-21 17:25:00,
2013-01-21 09:30:00,47.5,33.8,30.04,West,281,0.0,3.1,59,0.00,,---,0.00,cosweather0.1e,2013-01-21 17:30:00,
2013-01-21 09:35:00,47.7,35.6,30.04,NW,310,0.0,3.6,60,0.00,,---,0.00,cosweather0.1e,2013-01-21 17:35:00,
2013-01-21 09:40:00,48.0,35.6,30.04,WNW,297,0.0,4.0,61,0.00,,---,0.00,cosweather0.1e,2013-01-21 17:40:00,
2013-01-21 09:45:00,48.2,35.6,30.08,WNW,298,0.0,0.0,61,0.00,,---,0.00,cosweather0.1e,2013-01-21 17:45:00,
2013-01-21 09:50:00,48.4,35.6,30.08,WNW,296,0.0,2.7,61,0.00,,---,0.00,cosweather0.1e,2013-01-21 17:50:00,
2013-01-21 09:55:00,48.6,35.6,30.08,NW,312,0.0,2.7,61,0.00,,---,0.00,cosweather0.1e,2013-01-21 17:55:00,
2013-01-21 10:00:00,49.1,37.4,30.08,NW,310,0.0,2.7,61,0.00,,---,0.00,cosweather0.1e,2013-01-21 18:00:00,
2013-01-21 10:05:00,49.3,37.4,30.08,NW,306,0.0,3.6,61,0.00,,---,0.00,cosweather0.1e,2013-01-21 18:05:00,
2013-01-21 10:10:00,49.8,37.4,30.08,WNW,288,0.0,3.1,63,0.00,,---,0.00,cosweather0.1e,2013-01-21 18:10:00,
2013-01-21 10:15:00,50.0,37.4,30.08,West,276,0.0,0.0,63,0.00,,---,0.00,cosweather0.1e,2013-01-21 18:15:00,
2013-01-21 10:20:00,50.5,37.4,30.08,WNW,294,0.0,0.0,62,0.00,,---,0.00,cosweather0.1e,2013-01-21 18:20:00,
2013-01-21 10:25:00,50.9,39.2,30.08,WNW,294,0.0,2.2,61,0.00,,---,0.00,cosweather0.1e,2013-01-21 18:25:00,
2013-01-21 10:30:00,51.6,39.2,30.08,West,277,0.0,0.0,61,0.00,,---,0.00,cosweather0.1e,2013-01-21 18:30:00,
2013-01-21 10:35:00,52.0,37.4,30.08,West,281,0.0,0.0,57,0.00,,---,0.00,cosweather0.1e,2013-01-21 18:35:00,
2013-01-21 10:40:00,52.7,39.2,30.08,SW,235,0.0,0.0,57,0.00,,---,0.00,cosweather0.1e,2013-01-21 18:40:00,
2013-01-21 10:45:00,53.6,39.2,30.08,West,271,0.0,0.0,56,0.00,,---,0.00,cosweather0.1e,2013-01-21 18:45:00,
2013-01-21 10:50:00,54.5,39.2,30.08,West,271,0.0,0.0,55,0.00,,---,0.00,cosweather0.1e,2013-01-21 18:50:00,
2013-01-21 10:55:00,55.0,39.2,30.08,SW,222,0.0,0.0,54,0.00,,---,0.00,cosweather0.1e,2013-01-21 18:55:00,
2013-01-21 11:00:00,55.9,39.2,30.08,West,276,0.0,3.1,53,0.00,,---,0.00,cosweather0.1e,2013-01-21 19:00:00,
2013-01-21 11:05:00,56.5,39.2,30.08,NW,314,0.0,0.0,52,0.00,,---,0.00,cosweather0.1e,2013-01-21 19:05:00,
2013-01-21 11:10:00,56.8,39.2,30.08,SSW,198,0.0,2.7,51,0.00,,---,0.00,cosweather0.1e,2013-01-21 19:10:00,
2013-01-21 11:15:00,57.7,39.2,30.08,WNW,288,0.0,0.0,50,0.00,,---,0.00,cosweather0.1e,2013-01-21 19:15:00,
2013-01-21 11:20:00,58.3,39.2,30.08,South,184,0.0,3.1,48,0.00,,---,0.00,cosweather0.1e,2013-01-21 19:20:00,
2013-01-21 11:25:00,58.6,39.2,30.08,SW,223,0.0,0.0,48,0.00,,---,0.00,cosweather0.1e,2013-01-21 19:25:00,
2013-01-21 11:30:00,59.2,39.2,30.04,SSW,195,0.0,0.0,47,0.00,,---,0.00,cosweather0.1e,2013-01-21 19:30:00,
2013-01-21 11:35:00,59.7,37.4,30.04,West,265,0.0,0.0,46,0.00,,---,0.00,cosweather0.1e,2013-01-21 19:35:00,
2013-01-21 11:40:00,60.4,39.2,30.04,West,260,0.0,3.1,45,0.00,,---,0.00,cosweather0.1e,2013-01-21 19:40:00,
2013-01-21 11:45:00,60.6,37.4,30.04,WNW,293,0.0,3.6,41,0.00,,---,0.00,cosweather0.1e,2013-01-21 19:45:00,
2013-01-21 11:50:00,61.0,37.4,30.04,NNW,327,0.0,3.6,41,0.00,,---,0.00,cosweather0.1e,2013-01-21 19:50:00,
2013-01-21 11:55:00,61.7,37.4,30.04,SW,226,0.0,4.9,40,0.00,,---,0.00,cosweather0.1e,2013-01-21 19:55:00,
2013-01-21 12:00:00,62.1,37.4,30.04,SSW,208,0.0,0.0,40,0.00,,---,0.00,cosweather0.1e,2013-01-21 20:00:00,
2013-01-21 12:05:00,62.8,37.4,30.04,SW,235,0.0,2.7,39,0.00,,---,0.00,cosweather0.1e,2013-01-21 20:05:00,
2013-01-21 12:10:00,63.0,35.6,30.04,NW,314,0.0,0.0,37,0.00,,---,0.00,cosweather0.1e,2013-01-21 20:10:00,
2013-01-21 12:15:00,63.3,37.4,30.00,NNW,346,0.0,0.0,39,0.00,,---,0.00,cosweather0.1e,2013-01-21 20:15:00,
2013-01-21 12:20:00,63.7,39.2,30.00,West,281,0.0,0.0,38,0.00,,---,0.00,cosweather0.1e,2013-01-21 20:20:00,
2013-01-21 12:25:00,64.4,39.2,30.00,NW,322,0.0,0.0,39,0.00,,---,0.00,cosweather0.1e,2013-01-21 20:25:00,
2013-01-21 12:30:00,65.5,39.2,30.00,WNW,289,0.0,3.6,38,0.00,,---,0.00,cosweather0.1e,2013-01-21 20:30:00,
2013-01-21 12:35:00,66.0,39.2,30.00,NW,305,0.0,2.7,36,0.00,,---,0.00,cosweather0.1e,2013-01-21 20:35:00,
2013-01-21 12:40:00,66.6,39.2,30.00,WNW,294,0.0,5.4,36,0.00,,---,0.00,cosweather0.1e,2013-01-21 20:40:00,
2013-01-21 12:45:00,67.1,41.0,30.00,NW,308,0.0,0.0,36,0.00,,---,0.00,cosweather0.1e,2013-01-21 20:45:00,
2013-01-21 12:50:00,67.3,39.2,30.00,North,1,0.0,3.6,34,0.00,,---,0.00,cosweather0.1e,2013-01-21 20:50:00,
2013-01-21 12:55:00,67.3,39.2,30.00,West,280,0.0,3.6,34,0.00,,---,0.00,cosweather0.1e,2013-01-21 20:55:00,
2013-01-21 13:00:00,67.6,39.2,30.00,West,268,0.0,0.0,34,0.00,,---,0.00,cosweather0.1e,2013-01-21 21:00:00,
2013-01-21 13:05:00,68.0,37.4,30.00,SSW,197,0.0,3.6,33,0.00,,---,0.00,cosweather0.1e,2013-01-21 21:05:00,
2013-01-21 13:11:00,68.4,37.4,30.00,WSW,238,0.0,2.7,33,0.00,,---,0.00,cosweather0.1e,2013-01-21 21:11:00,
2013-01-21 13:15:00,69.1,39.2,30.00,WNW,290,0.0,3.1,33,0.00,,---,0.00,cosweather0.1e,2013-01-21 21:15:00,
2013-01-21 13:21:00,69.3,39.2,30.00,WSW,256,0.0,3.1,33,0.00,,---,0.00,cosweather0.1e,2013-01-21 21:21:00,
2013-01-21 13:26:00,69.4,39.2,30.00,SW,228,0.0,2.7,32,0.00,,---,0.00,cosweather0.1e,2013-01-21 21:26:00,
2013-01-21 13:31:00,69.8,39.2,30.00,SW,214,0.0,0.0,32,0.00,,---,0.00,cosweather0.1e,2013-01-21 21:31:00,
2013-01-21 13:36:00,70.2,39.2,30.00,SSW,213,0.0,2.7,32,0.00,,---,0.00,cosweather0.1e,2013-01-21 21:36:00,
2013-01-21 13:41:00,70.7,41.0,30.00,South,187,0.0,4.9,32,0.00,,---,0.00,cosweather0.1e,2013-01-21 21:41:00,
2013-01-21 13:46:00,70.9,39.2,29.96,SSW,206,0.0,0.0,31,0.00,,---,0.00,cosweather0.1e,2013-01-21 21:46:00,
2013-01-21 13:51:00,70.9,39.2,29.96,SSW,200,0.0,4.0,30,0.00,,---,0.00,cosweather0.1e,2013-01-21 21:51:00,
2013-01-21 13:56:00,71.1,39.2,29.96,SSW,213,0.0,2.7,30,0.00,,---,0.00,cosweather0.1e,2013-01-21 21:56:00,
2013-01-21 14:01:00,71.2,39.2,29.96,North,6,0.0,0.0,31,0.00,,---,0.00,cosweather0.1e,2013-01-21 22:01:00,
2013-01-21 14:06:00,71.6,39.2,29.96,SW,217,0.0,3.6,31,0.00,,---,0.00,cosweather0.1e,2013-01-21 22:06:00,
2013-01-21 14:11:00,71.6,37.4,29.96,SSW,202,0.0,4.0,29,0.00,,---,0.00,cosweather0.1e,2013-01-21 22:11:00,
2013-01-21 14:16:00,71.6,37.4,29.96,South,190,0.0,3.6,28,0.00,,---,0.00,cosweather0.1e,2013-01-21 22:16:00,
2013-01-21 14:21:00,71.4,37.4,29.96,SW,220,0.0,3.6,28,0.00,,---,0.00,cosweather0.1e,2013-01-21 22:21:00,
2013-01-21 14:26:00,71.6,37.4,29.96,WSW,258,0.0,0.0,29,0.00,,---,0.00,cosweather0.1e,2013-01-21 22:26:00,
2013-01-21 14:31:00,72.0,37.4,29.96,SW,226,0.0,2.7,29,0.00,,---,0.00,cosweather0.1e,2013-01-21 22:31:00,
2013-01-21 14:36:00,72.5,39.2,29.96,WSW,258,0.0,3.1,29,0.00,,---,0.00,cosweather0.1e,2013-01-21 22:36:00,
2013-01-21 14:41:00,72.5,39.2,29.96,North,1,0.0,3.1,28,0.00,,---,0.00,cosweather0.1e,2013-01-21 22:41:00,
2013-01-21 14:46:00,72.1,37.4,29.96,NW,309,0.0,3.1,29,0.00,,---,0.00,cosweather0.1e,2013-01-21 22:46:00,
2013-01-21 14:51:00,72.1,37.4,29.96,NW,307,0.0,2.7,29,0.00,,---,0.00,cosweather0.1e,2013-01-21 22:51:00,
2013-01-21 14:56:00,72.5,39.2,29.96,WNW,289,0.0,2.2,29,0.00,,---,0.00,cosweather0.1e,2013-01-21 22:56:00,
2013-01-21 15:01:00,72.5,39.2,29.96,SSW,196,0.0,4.0,29,0.00,,---,0.00,cosweather0.1e,2013-01-21 23:01:00,
2013-01-21 15:06:00,72.3,37.4,29.96,WNW,291,0.0,3.1,29,0.00,,---,0.00,cosweather0.1e,2013-01-21 23:06:00,
2013-01-21 15:11:00,72.3,37.4,29.96,WNW,302,0.0,2.7,29,0.00,,---,0.00,cosweather0.1e,2013-01-21 23:11:00,
2013-01-21 15:16:00,72.1,37.4,29.96,SW,232,0.0,4.0,29,0.00,,---,0.00,cosweather0.1e,2013-01-21 23:16:00,
2013-01-21 15:21:00,72.0,37.4,29.96,SW,228,0.0,2.7,29,0.00,,---,0.00,cosweather0.1e,2013-01-21 23:21:00,
2013-01-21 15:26:00,72.1,37.4,29.96,NW,318,0.0,3.6,29,0.00,,---,0.00,cosweather0.1e,2013-01-21 23:26:00,
2013-01-21 15:31:00,72.1,37.4,29.96,WNW,297,0.0,4.9,29,0.00,,---,0.00,cosweather0.1e,2013-01-21 23:31:00,
2013-01-21 15:36:00,72.1,37.4,29.96,West,277,0.0,2.2,29,0.00,,---,0.00,cosweather0.1e,2013-01-21 23:36:00,
2013-01-21 15:41:00,72.0,37.4,29.96,West,265,0.0,2.7,29,0.00,,---,0.00,cosweather0.1e,2013-01-21 23:41:00,
2013-01-21 15:46:00,71.6,37.4,29.92,West,259,0.0,0.0,28,0.00,,---,0.00,cosweather0.1e,2013-01-21 23:46:00,
2013-01-21 15:51:00,71.4,37.4,29.92,WNW,299,0.0,3.6,28,0.00,,---,0.00,cosweather0.1e,2013-01-21 23:51:00,
2013-01-21 15:56:00,71.1,37.4,29.92,WNW,296,0.0,3.1,29,0.00,,---,0.00,cosweather0.1e,2013-01-21 23:56:00,
2013-01-21 16:01:00,70.7,37.4,29.96,WNW,285,0.0,0.0,29,0.00,,---,0.00,cosweather0.1e,2013-01-22 00:01:00,
2013-01-21 16:06:00,70.5,35.6,29.96,WNW,292,0.0,2.7,29,0.00,,---,0.00,cosweather0.1e,2013-01-22 00:06:00,
2013-01-21 16:11:00,70.3,35.6,29.96,WNW,292,0.0,2.2,29,0.00,,---,0.00,cosweather0.1e,2013-01-22 00:11:00,
2013-01-21 16:16:00,70.2,35.6,29.92,WNW,297,0.0,3.1,29,0.00,,---,0.00,cosweather0.1e,2013-01-22 00:16:00,
2013-01-21 16:21:00,70.2,35.6,29.92,WNW,298,0.0,4.0,29,0.00,,---,0.00,cosweather0.1e,2013-01-22 00:21:00,
2013-01-21 16:26:00,70.0,35.6,29.92,WNW,302,0.0,2.7,29,0.00,,---,0.00,cosweather0.1e,2013-01-22 00:26:00,
2013-01-21 16:31:00,69.6,37.4,29.92,WNW,303,0.0,2.7,30,0.00,,---,0.00,cosweather0.1e,2013-01-22 00:31:00,
2013-01-21 16:36:00,69.4,37.4,29.92,WNW,302,0.0,0.0,30,0.00,,---,0.00,cosweather0.1e,2013-01-22 00:36:00,
2013-01-21 16:41:00,69.3,37.4,29.92,WNW,303,0.0,0.0,30,0.00,,---,0.00,cosweather0.1e,2013-01-22 00:41:00,
2013-01-21 16:46:00,69.1,37.4,29.92,WNW,303,0.0,0.0,30,0.00,,---,0.00,cosweather0.1e,2013-01-22 00:46:00,
2013-01-21 16:51:00,68.9,37.4,29.92,WNW,303,0.0,0.0,30,0.00,,---,0.00,cosweather0.1e,2013-01-22 00:51:00,
2013-01-21 16:56:00,68.5,35.6,29.92,WNW,303,0.0,0.0,30,0.00,,---,0.00,cosweather0.1e,2013-01-22 00:56:00,
2013-01-21 17:01:00,68.4,35.6,29.92,WNW,302,0.0,0.0,30,0.00,,---,0.00,cosweather0.1e,2013-01-22 01:01:00,
2013-01-21 17:06:00,68.0,35.6,29.92,WNW,302,0.0,0.0,31,0.00,,---,0.00,cosweather0.1e,2013-01-22 01:06:00,
2013-01-21 17:11:00,67.6,35.6,29.92,WNW,302,0.0,0.0,31,0.00,,---,0.00,cosweather0.1e,2013-01-22 01:11:00,
2013-01-21 17:16:00,67.3,37.4,29.92,NW,308,0.0,0.0,32,0.00,,---,0.00,cosweather0.1e,2013-01-22 01:16:00,
2013-01-21 17:21:00,66.9,35.6,29.92,NW,318,0.0,0.0,32,0.00,,---,0.00,cosweather0.1e,2013-01-22 01:21:00,
2013-01-21 17:26:00,66.6,35.6,29.92,NW,317,0.0,0.0,33,0.00,,---,0.00,cosweather0.1e,2013-01-22 01:26:00,
2013-01-21 17:31:00,66.2,35.6,29.92,NW,318,0.0,0.0,33,0.00,,---,0.00,cosweather0.1e,2013-01-22 01:31:00,
2013-01-21 17:36:00,65.8,35.6,29.92,NW,317,0.0,0.0,33,0.00,,---,0.00,cosweather0.1e,2013-01-22 01:36:00,
2013-01-21 17:41:00,65.5,35.6,29.92,NW,317,0.0,0.0,33,0.00,,---,0.00,cosweather0.1e,2013-01-22 01:41:00,
2013-01-21 17:46:00,64.8,35.6,29.92,NW,317,0.0,0.0,34,0.00,,---,0.00,cosweather0.1e,2013-01-22 01:46:00,
2013-01-21 17:51:00,64.4,35.6,29.92,NW,317,0.0,0.0,34,0.00,,---,0.00,cosweather0.1e,2013-01-22 01:51:00,
2013-01-21 17:56:00,63.7,35.6,29.92,NW,321,0.0,0.0,34,0.00,,---,0.00,cosweather0.1e,2013-01-22 01:56:00,
2013-01-21 18:01:00,63.1,33.8,29.92,NW,321,0.0,0.0,35,0.00,,---,0.00,cosweather0.1e,2013-01-22 02:01:00,
2013-01-21 18:06:00,62.8,33.8,29.92,NW,320,0.0,0.0,35,0.00,,---,0.00,cosweather0.1e,2013-01-22 02:06:00,
2013-01-21 18:11:00,62.6,33.8,29.92,NW,321,0.0,0.0,35,0.00,,---,0.00,cosweather0.1e,2013-01-22 02:11:00,
2013-01-21 18:16:00,62.2,35.6,29.92,NW,320,0.0,0.0,36,0.00,,---,0.00,cosweather0.1e,2013-01-22 02:16:00,
2013-01-21 18:22:00,62.1,35.6,29.92,NW,321,0.0,0.0,36,0.00,,---,0.00,cosweather0.1e,2013-01-22 02:22:00,
2013-01-21 18:27:00,61.9,35.6,29.92,NW,321,0.0,0.0,36,0.00,,---,0.00,cosweather0.1e,2013-01-22 02:27:00,
2013-01-21 18:32:00,61.7,35.6,29.96,NW,321,0.0,0.0,37,0.00,,---,0.00,cosweather0.1e,2013-01-22 02:32:00,
2013-01-21 18:37:00,61.7,35.6,29.96,NW,320,0.0,0.0,37,0.00,,---,0.00,cosweather0.1e,2013-01-22 02:37:00,
2013-01-21 18:42:00,61.2,33.8,29.96,NW,321,0.0,0.0,37,0.00,,---,0.00,cosweather0.1e,2013-01-22 02:42:00,
2013-01-21 18:47:00,60.8,33.8,29.96,NW,322,0.0,0.0,37,0.00,,---,0.00,cosweather0.1e,2013-01-22 02:47:00,
2013-01-21 18:52:00,60.4,35.6,29.96,NW,322,0.0,0.0,38,0.00,,---,0.00,cosweather0.1e,2013-01-22 02:52:00,
2013-01-21 18:57:00,60.3,35.6,29.96,NW,322,0.0,0.0,38,0.00,,---,0.00,cosweather0.1e,2013-01-22 02:57:00,
2013-01-21 19:02:00,59.9,35.6,29.96,NW,322,0.0,0.0,38,0.00,,---,0.00,cosweather0.1e,2013-01-22 03:02:00,
2013-01-21 19:07:00,59.5,33.8,29.96,NW,322,0.0,0.0,38,0.00,,---,0.00,cosweather0.1e,2013-01-22 03:07:00,
2013-01-21 19:12:00,59.4,33.8,29.96,NW,322,0.0,0.0,38,0.00,,---,0.00,cosweather0.1e,2013-01-22 03:12:00,
2013-01-21 19:17:00,59.4,33.8,29.96,NW,323,0.0,0.0,38,0.00,,---,0.00,cosweather0.1e,2013-01-22 03:17:00,
2013-01-21 19:22:00,58.6,33.8,29.96,NE,36,0.0,5.4,39,0.00,,---,0.00,cosweather0.1e,2013-01-22 03:22:00,
2013-01-21 19:27:00,57.9,33.8,29.96,NE,34,0.0,4.0,40,0.00,,---,0.00,cosweather0.1e,2013-01-22 03:27:00,
2013-01-21 19:32:00,57.4,33.8,29.96,NNE,33,0.0,3.6,41,0.00,,---,0.00,cosweather0.1e,2013-01-22 03:32:00,
2013-01-21 19:37:00,57.2,33.8,29.96,NNE,32,0.0,3.6,42,0.00,,---,0.00,cosweather0.1e,2013-01-22 03:37:00,
2013-01-21 19:42:00,57.0,35.6,29.96,NNE,19,0.0,4.9,43,0.00,,---,0.00,cosweather0.1e,2013-01-22 03:42:00,
2013-01-21 19:47:00,56.8,35.6,29.96,NNE,29,0.0,2.2,43,0.00,,---,0.00,cosweather0.1e,2013-01-22 03:47:00,
2013-01-21 19:52:00,57.0,35.6,29.96,NNE,22,0.0,4.0,43,0.00,,---,0.00,cosweather0.1e,2013-01-22 03:52:00,
2013-01-21 19:57:00,56.8,35.6,29.96,NNE,30,0.0,4.0,44,0.00,,---,0.00,cosweather0.1e,2013-01-22 03:57:00,
2013-01-21 20:02:00,56.5,35.6,29.96,NNE,19,0.0,2.7,44,0.00,,---,0.00,cosweather0.1e,2013-01-22 04:02:00,
2013-01-21 20:07:00,56.7,35.6,29.96,NNE,21,0.0,0.0,44,0.00,,---,0.00,cosweather0.1e,2013-01-22 04:07:00,
2013-01-21 20:12:00,56.8,35.6,29.96,NNE,21,0.0,0.0,44,0.00,,---,0.00,cosweather0.1e,2013-01-22 04:12:00,
2013-01-21 20:17:00,57.0,35.6,29.96,NNE,21,0.0,0.0,43,0.00,,---,0.00,cosweather0.1e,2013-01-22 04:17:00,
2013-01-21 20:22:00,57.0,35.6,29.96,NNE,22,0.0,0.0,43,0.00,,---,0.00,cosweather0.1e,2013-01-22 04:22:00,
2013-01-21 20:27:00,57.0,35.6,29.96,NNE,21,0.0,0.0,43,0.00,,---,0.00,cosweather0.1e,2013-01-22 04:27:00,
2013-01-21 20:32:00,56.8,35.6,29.96,NNE,21,0.0,0.0,43,0.00,,---,0.00,cosweather0.1e,2013-01-22 04:32:00,
2013-01-21 20:37:00,56.7,35.6,29.96,NNE,21,0.0,0.0,43,0.00,,---,0.00,cosweather0.1e,2013-01-22 04:37:00,
2013-01-21 20:42:00,56.7,35.6,29.96,NNE,22,0.0,0.0,43,0.00,,---,0.00,cosweather0.1e,2013-01-22 04:42:00,
2013-01-21 20:47:00,56.7,35.6,29.96,NNE,22,0.0,0.0,44,0.00,,---,0.00,cosweather0.1e,2013-01-22 04:47:00,
2013-01-21 20:52:00,56.5,35.6,29.96,NNE,22,0.0,0.0,43,0.00,,---,0.00,cosweather0.1e,2013-01-22 04:52:00,
2013-01-21 20:57:00,56.5,35.6,29.96,NNE,22,0.0,0.0,43,0.00,,---,0.00,cosweather0.1e,2013-01-22 04:57:00,
2013-01-21 21:00:00,56.3,35.6,29.96,NNE,22,0.0,0.0,43,0.00,,---,0.00,cosweather0.1e,2013-01-22 05:00:00,
2013-01-21 21:01:00,56.3,35.6,29.96,NNE,22,0.0,0.0,43,0.00,,---,0.00,cosweather0.1e,2013-01-22 05:01:00,
2013-01-21 21:06:00,56.1,33.8,29.96,NNE,22,0.0,0.0,43,0.00,,---,0.00,cosweather0.1e,2013-01-22 05:06:00,
2013-01-21 21:11:00,56.1,33.8,29.96,NNE,22,0.0,0.0,44,0.00,,---,0.00,cosweather0.1e,2013-01-22 05:11:00,
2013-01-21 21:16:00,55.8,33.8,29.96,NNE,23,0.0,0.0,44,0.00,,---,0.00,cosweather0.1e,2013-01-22 05:16:00,
2013-01-21 21:21:00,55.2,33.8,29.96,NNE,23,0.0,0.0,45,0.00,,---,0.00,cosweather0.1e,2013-01-22 05:21:00,
2013-01-21 21:26:00,54.9,35.6,29.96,NNE,23,0.0,0.0,46,0.00,,---,0.00,cosweather0.1e,2013-01-22 05:26:00,
2013-01-21 21:31:00,54.9,35.6,29.96,NNE,23,0.0,0.0,46,0.00,,---,0.00,cosweather0.1e,2013-01-22 05:31:00,
2013-01-21 21:36:00,54.9,35.6,29.96,NNE,24,0.0,0.0,46,0.00,,---,0.00,cosweather0.1e,2013-01-22 05:36:00,
2013-01-21 21:41:00,55.0,35.6,29.96,NNE,23,0.0,0.0,46,0.00,,---,0.00,cosweather0.1e,2013-01-22 05:41:00,
2013-01-21 21:46:00,54.9,35.6,30.00,NNE,23,0.0,0.0,46,0.00,,---,0.00,cosweather0.1e,2013-01-22 05:46:00,
2013-01-21 21:52:00,54.9,35.6,30.00,NNE,22,0.0,0.0,46,0.00,,---,0.00,cosweather0.1e,2013-01-22 05:52:00,
2013-01-21 21:57:00,54.9,35.6,30.00,NNE,19,0.0,0.0,46,0.00,,---,0.00,cosweather0.1e,2013-01-22 05:57:00,
2013-01-21 22:02:00,55.0,35.6,30.00,WNW,299,0.0,2.7,46,0.00,,---,0.00,cosweather0.1e,2013-01-22 06:02:00,
2013-01-21 22:07:00,54.9,35.6,30.00,NW,310,0.0,0.0,46,0.00,,---,0.00,cosweather0.1e,2013-01-22 06:07:00,
2013-01-21 22:12:00,54.1,33.8,30.00,North,357,0.0,0.0,46,0.00,,---,0.00,cosweather0.1e,2013-01-22 06:12:00,
2013-01-21 22:17:00,53.6,33.8,30.00,North,357,0.0,0.0,46,0.00,,---,0.00,cosweather0.1e,2013-01-22 06:17:00,
2013-01-21 22:22:00,53.8,33.8,30.00,North,357,0.0,0.0,47,0.00,,---,0.00,cosweather0.1e,2013-01-22 06:22:00,
2013-01-21 22:27:00,53.4,33.8,30.00,North,357,0.0,0.0,47,0.00,,---,0.00,cosweather0.1e,2013-01-22 06:27:00,
2013-01-21 22:32:00,53.6,33.8,30.00,North,357,0.0,0.0,47,0.00,,---,0.00,cosweather0.1e,2013-01-22 06:32:00,
2013-01-21 22:37:00,53.6,33.8,30.00,North,357,0.0,0.0,47,0.00,,---,0.00,cosweather0.1e,2013-01-22 06:37:00,
2013-01-21 22:42:00,53.6,33.8,30.00,North,357,0.0,0.0,47,0.00,,---,0.00,cosweather0.1e,2013-01-22 06:42:00,
2013-01-21 22:47:00,53.4,33.8,30.00,ENE,68,0.0,0.0,47,0.00,,---,0.00,cosweather0.1e,2013-01-22 06:47:00,
2013-01-21 22:52:00,53.1,33.8,30.00,ENE,61,0.0,0.0,47,0.00,,---,0.00,cosweather0.1e,2013-01-22 06:52:00,
2013-01-21 22:57:00,52.9,33.8,30.00,ENE,61,0.0,0.0,47,0.00,,---,0.00,cosweather0.1e,2013-01-22 06:57:00,
2013-01-21 23:02:00,53.1,33.8,29.96,NNE,14,0.0,0.0,48,0.00,,---,0.00,cosweather0.1e,2013-01-22 07:02:00,
2013-01-21 23:07:00,53.2,33.8,29.96,NNE,14,0.0,0.0,48,0.00,,---,0.00,cosweather0.1e,2013-01-22 07:07:00,
2013-01-21 23:12:00,53.4,33.8,29.96,NNE,14,0.0,0.0,47,0.00,,---,0.00,cosweather0.1e,2013-01-22 07:12:00,
2013-01-21 23:17:00,53.2,33.8,29.96,NNE,14,0.0,0.0,47,0.00,,---,0.00,cosweather0.1e,2013-01-22 07:17:00,
2013-01-21 23:22:00,53.1,33.8,29.96,NNE,15,0.0,0.0,47,0.00,,---,0.00,cosweather0.1e,2013-01-22 07:22:00,
2013-01-21 23:27:00,53.1,33.8,29.96,NNE,14,0.0,0.0,47,0.00,,---,0.00,cosweather0.1e,2013-01-22 07:27:00,
2013-01-21 23:32:00,52.9,33.8,29.96,NNE,14,0.0,0.0,47,0.00,,---,0.00,cosweather0.1e,2013-01-22 07:32:00,
2013-01-21 23:37:00,53.1,33.8,29.96,NNE,14,0.0,0.0,47,0.00,,---,0.00,cosweather0.1e,2013-01-22 07:37:00,
2013-01-21 23:42:00,52.9,33.8,29.96,NNE,15,0.0,0.0,47,0.00,,---,0.00,cosweather0.1e,2013-01-22 07:42:00,
2013-01-21 23:47:00,52.7,33.8,29.96,NNE,15,0.0,0.0,47,0.00,,---,0.00,cosweather0.1e,2013-01-22 07:47:00,
2013-01-21 23:52:00,52.3,32.0,29.96,NNE,14,0.0,0.0,47,0.00,,---,0.00,cosweather0.1e,2013-01-22 07:52:00,
2013-01-21 23:57:00,52.2,32.0,29.96,NNE,15,0.0,0.0,47,0.00,,---,0.00,cosweather0.1e,2013-01-22 07:57:00,